sat.trackr.live / text

‹ back to catalog

ONEWEB-0307

NORAD 49189 · 2021-083D

PAYLOAD ACTIVE UNKNOWN

§ Identity

Operator
Country
UK
Launch date
2021-09-14
Launch site
TYMSC
Launch vehicle
Mass (kg)
RCS (m²)

Purposes: comms

External: N2YO · Heavens-Above · Gunter

§ Orbital elements

Epoch: 2026-05-25T00:02:21.734016Z

Period
109.63 min
Inclination
87.8940°
Eccentricity
0.0001907
Mean motion
13.13469489 rev/d
Perigee alt
1,208.3 km
Apogee alt
1,211.2 km
Semi-major
7,587.9 km
B*
-3.6174e-4
RAAN
324.8546°
Arg perigee
94.3399°
Mean anomaly
265.7948°
Rev number
22,788

§ Raw data

ONEWEB-03071 49189U 21083D   26145.00164044 -.00000119  00000+0 -36174-3 0  99982 49189  87.8940 324.8546 0001907  94.3399 265.7948 13.13469489227881

JSON: /api/v1/satellites/49189 · /tle

For live sub-satellite position, see the globe view (requires WebGL).

§ Visibility from observer

Set your observer location to see the next 7 days of passes ≥ 10°. The values pass through the URL so the page stays shareable.

No JS? Fill the form by hand. The geolocation button needs JavaScript.